FW3877 Weather Reports


time (UTC)temp
C
wind
direction
speed
KPH
gust
KPH
rain 1hr
cm
rain 24hr
cm
rain mn
cm
humidity
%
barometer
mb
20260831112203 15 270 9.7 22.5 0.00 1.98 0.05 82 1014.0
20260831111704 15 275 6.4 20.9 0.00 1.98 0.05 82 1013.9
20260831111204 15 279 9.7 16.1 0.00 1.98 0.05 83 1013.9
20260831110704 14 278 8.0 19.3 0.00 1.98 0.05 82 1013.9
20260831110204 14 278 8.0 14.5 0.00 1.98 0.05 82 1013.8
20260831105704 14 288 11.3 19.3 0.00 1.98 0.05 82 1013.8
20260831105204 14 272 8.0 16.1 0.00 1.98 0.05 82 1013.7
20260831104705 15 294 8.0 16.1 0.00 1.98 0.05 83 1013.7
20260831104204 15 267 6.4 14.5 0.00 1.98 0.05 84 1013.7
20260831103704 14 277 9.7 16.1 0.00 1.98 0.05 84 1013.7
20260831103204 14 275 6.4 14.5 0.00 1.98 0.05 84 1013.7
20260831102704 14 275 3.2 4.8 0.00 1.98 0.05 84 1013.5
20260831102204 14 300 4.8 9.7 0.00 1.98 0.05 84 1013.7
20260831101704 14 298 8.0 14.5 0.00 1.98 0.05 83 1013.7
20260831101205 14 280 11.3 16.1 0.00 1.98 0.05 83 1013.5
20260831100704 14 269 4.8 12.9 0.00 1.98 0.05 85 1013.6
20260831100204 13 278 6.4 11.3 0.00 1.98 0.05 85 1013.6
20260831095704 13 260 8.0 19.3 0.00 1.98 0.05 85 1013.4
20260831095204 13 279 9.7 20.9 0.00 1.98 0.05 86 1013.3
20260831094704 13 277 8.0 19.3 0.00 1.98 0.05 86 1013.4
20260831094204 13 282 9.7 16.1 0.00 1.98 0.05 87 1013.3
20260831093704 13 300 8.0 19.3 0.00 1.98 0.05 88 1013.2
20260831093204 13 291 8.0 16.1 0.00 1.98 0.05 89 1013.2
20260831092704 13 293 6.4 16.1 0.00 1.98 0.05 90 1013.1
20260831092205 13 290 6.4 20.9 0.00 1.98 0.05 90 1013.0
20260831091204 13 286 9.7 20.9 0.00 1.98 0.05 91 1012.9
20260831090704 13 282 8.0 19.3 0.00 1.98 0.05 93 1012.9
20260831090204 13 279 11.3 19.3 0.00 1.98 0.05 93 1012.9
20260831085704 13 269 8.0 19.3 0.00 1.98 0.05 94 1012.8
20260831085204 13 299 8.0 19.3 0.00 1.98 0.05 95 1012.8
20260831084704 13 268 6.4 12.9 0.00 1.98 0.05 95 1012.6
20260831084204 13 278 6.4 14.5 0.00 1.98 0.05 95 1012.6
20260831083704 12 263 9.7 16.1 0.00 1.98 0.05 95 1012.5
20260831083204 12 266 6.4 14.5 0.00 1.98 0.05 95 1012.5
20260831082704 12 270 4.8 11.3 0.00 1.98 0.05 95 1012.5
20260831082204 12 264 8.0 14.5 0.00 1.98 0.05 95 1012.4
20260831081704 12 275 6.4 12.9 0.03 1.98 0.05 95 1012.4
20260831081204 12 255 8.0 14.5 0.03 1.98 0.05 96 1012.3
20260831080704 12 255 8.0 14.5 0.03 1.98 0.05 95 1012.2
20260831080204 12 266 4.8 12.9 0.03 1.98 0.05 95 1012.2
20260831075704 12 263 8.0 14.5 0.03 1.98 0.05 95 1012.2
20260831075204 11 260 8.0 11.3 0.03 1.98 0.05 95 1012.1
20260831074204 11 280 3.2 9.7 0.03 1.98 0.05 95 1012.1
20260831073704 11 274 4.8 12.9 0.03 1.98 0.05 95 1012.0
20260831073203 11 308 4.8 19.3 0.03 1.98 0.05 95 1012.0
20260831072704 11 276 4.8 16.1 0.03 1.98 0.05 95 1012.0
20260831072204 11 280 8.0 19.3 0.03 1.98 0.05 95 1011.9
20260831071704 11 281 9.7 14.5 0.00 1.96 0.03 95 1012.0
20260831071204 11 233 8.0 12.9 0.00 1.96 0.03 95 1011.7
20260831070704 11 253 9.7 16.1 0.00 1.96 0.03 95 1011.7
20260831070203 11 247 4.8 11.3 0.00 1.96 0.03 95 1011.5
20260831065205 11 233 4.8 8.0 0.00 1.96 0.03 95 1011.5
20260831064704 11 237 3.2 4.8 0.00 1.96 0.03 95 1011.3
20260831064204 11 229 4.8 8.0 0.00 1.96 0.03 95 1011.2
20260831063704 11 236 4.8 4.8 0.00 1.96 0.03 95 1011.2
20260831063204 11 237 4.8 8.0 0.00 1.96 0.03 95 1010.9
20260831062204 11 232 3.2 4.8 0.03 1.96 0.03 95 1010.9
20260831061704 11 256 3.2 4.8 0.03 1.96 0.03 95 1010.8
20260831061204 11 222 3.2 4.8 0.03 1.96 0.03 95 1010.8
20260831060705 11 223 3.2 4.8 0.03 1.96 0.03 95 1010.7
20260831055704 11 244 4.8 9.7 0.03 1.96 0.03 95 1010.7
20260831055204 11 267 3.2 8.0 0.03 1.96 0.03 95 1010.4
20260831054704 11 85 1.6 3.2 0.03 1.96 0.03 95 1010.3
20260831053704 11 257 3.2 4.8 0.03 1.96 0.03 95 1010.3
20260831053204 11 259 3.2 8.0 0.03 1.96 0.03 95 1010.1
20260831051704 11 247 4.8 4.8 0.00 1.93 0.00 95 1009.9
20260831051204 11 248 4.8 9.7 0.00 1.93 0.00 95 1009.9
20260831050703 11 251 4.8 9.7 0.00 1.93 0.00 95 1009.7
20260831050204 11 241 4.8 8.0 0.00 1.93 0.00 95 1009.7
20260831045704 11 248 4.8 12.9 0.00 1.93 0.00 95 1009.7
20260831044704 11 276 4.8 12.9 0.00 1.93 0.00 95 1009.5
20260831043204 11 338 1.6 8.0 0.00 1.93 0.00 95 1009.3
20260831042204 11 315 1.6 8.0 0.00 1.93 0.00 95 1009.1
20260831041704 11 300 1.6 4.8 0.00 1.93 0.00 95 1009.0
20260831040203 11 287 8.0 16.1 0.00 1.93 0.00 95 1008.7
20260831035705 11 299 6.4 19.3 0.00 1.93 0.00 95 1008.7
20260831035204 11 292 3.2 12.9 0.00 1.93 0.00 95 1008.8
20260831034705 11 299 3.2 9.7 0.00 1.93 0.00 95 1008.7
20260831034204 11 277 4.8 11.3 0.00 1.93 0.00 95 1008.5
20260831033705 11 275 3.2 9.7 0.00 1.93 0.00 95 1008.5
20260831033204 11 269 6.4 14.5 0.00 1.93 0.00 95 1008.4
20260831032704 11 267 4.8 12.9 0.00 1.93 0.00 95 1008.4
20260831032204 11 281 8.0 14.5 0.00 1.93 0.00 95 1008.4
20260831031704 11 289 3.2 8.0 0.00 1.93 0.00 95 1008.4
20260831030705 11 281 4.8 12.9 0.00 1.93 0.00 95 1008.2
20260831030204 11 292 3.2 11.3 0.00 1.93 0.00 95 1008.2
20260831025704 11 289 3.2 14.5 0.00 1.93 0.00 95 1008.1
20260831025205 11 285 4.8 14.5 0.00 1.93 0.00 95 1008.1
20260831024704 11 308 3.2 9.7 0.00 1.93 0.00 95 1008.1
20260831024203 12 278 3.2 9.7 0.00 1.93 0.00 95 1008.1
20260831023704 11 299 3.2 9.7 0.00 1.93 0.00 96 1008.1
20260831023205 11 276 1.6 4.8 0.00 1.93 0.00 96 1007.9
20260831021704 12 316 4.8 14.5 0.00 1.93 0.00 95 1007.8
20260831021204 12 297 4.8 12.9 0.00 1.93 0.00 96 1007.7
20260831015704 12 352 3.2 8.0 0.00 1.93 0.00 96 1007.4
20260831015204 12 261 1.6 8.0 0.00 1.93 0.00 96 1007.3
20260831014703 12 286 1.6 8.0 0.00 1.93 0.00 96 1007.1
20260831014204 12 298 3.2 8.0 0.00 1.93 0.00 96 1007.1
20260831013704 12 283 3.2 8.0 0.00 1.93 0.00 96 1007.1
20260831012704 12 318 3.2 4.8 0.00 1.93 0.00 96 1007.2
20260831012204 12 322 3.2 11.3 0.00 1.93 0.00 96 1007.1
20260831011704 12 310 3.2 4.8 0.00 1.93 0.00 96 1007.1
20260831011204 13 330 3.2 9.7 0.00 1.93 0.00 96 1007.1
20260831010205 13 294 1.6 11.3 0.00 1.93 0.00 96 1006.8
20260831005704 13 322 4.8 9.7 0.00 1.93 0.00 96 1006.8
20260831005204 13 314 6.4 11.3 0.00 1.93 0.00 96 1006.8
20260831004204 13 313 3.2 4.8 0.00 1.93 0.00 96 1006.6
20260831003704 13 309 4.8 11.3 0.00 1.93 0.00 96 1006.5
20260831003204 13 330 3.2 8.0 0.00 1.93 0.00 96 1006.3
20260831002704 13 281 3.2 12.9 0.00 1.93 0.00 96 1006.3
20260831002204 13 284 4.8 14.5 0.00 1.93 0.00 96 1006.3
20260831001704 13 280 1.6 9.7 0.00 1.93 0.00 96 1006.3
20260831001205 13 262 1.6 3.2 0.00 1.93 0.00 96 1006.2
20260831000704 13 283 3.2 4.8 0.00 1.93 0.00 96 1006.2
20260831000204 13 321 3.2 4.8 0.00 1.93 0.00 96 1006.1
20260830235704 13 305 1.6 3.2 0.00 1.93 0.00 96 1006.0
20260830234704 13 323 3.2 8.0 0.00 1.93 0.00 96 1005.9
20260830234204 13 327 3.2 4.8 0.00 1.93 0.00 96 1005.9
20260830233704 13 304 3.2 12.9 0.00 1.93 0.00 96 1005.8
20260830233204 13 327 3.2 4.8 0.00 1.93 0.00 96 1005.8
20260830232704 13 313 3.2 4.8 0.00 1.93 0.00 96 1005.6
20260830232204 13 280 1.6 4.8 0.05 1.93 0.00 96 1005.6
20260830231705 13 324 1.6 4.8 0.05 1.93 0.00 96 1005.5
20260830230705 13 278 3.2 4.8 0.20 1.93 0.00 96 1005.4
20260830230204 13 299 1.6 9.7 0.20 1.93 0.00 96 1005.3
20260830225704 13 273 3.2 8.0 0.20 1.93 1.93 96 1005.2
20260830225204 14 327 1.6 4.8 0.20 1.93 1.93 96 1005.0
20260830224704 14 333 3.2 11.3 0.20 1.93 1.93 96 1004.9
20260830224204 14 306 3.2 9.7 0.20 1.93 1.93 96 1004.8
20260830223705 14 323 4.8 9.7 0.20 1.93 1.93 96 1004.7
20260830223204 14 338 3.2 8.0 0.20 1.93 1.93 96 1004.6
20260830222704 14 321 1.6 8.0 0.20 1.93 1.93 96 1004.6
20260830222204 14 328 3.2 4.8 0.18 1.93 1.93 96 1004.5
20260830221203 14 281 1.6 16.1 0.15 1.88 1.88 96 1004.3
20260830220704 14 305 3.2 9.7 0.03 1.75 1.75 96 1004.3
20260830220204 14 329 0.0 1.6 0.00 1.75 1.75 96 1004.1
20260830215704 14 329 1.6 3.2 0.00 1.75 1.75 95 1004.1
20260830215204 14 332 3.2 4.8 0.00 1.75 1.75 95 1004.0
20260830214704 14 292 3.2 4.8 0.00 1.75 1.75 96 1004.0
20260830214204 14 331 1.6 4.8 0.00 1.75 1.75 96 1003.8
20260830213704 14 327 1.6 4.8 0.00 1.75 1.75 96 1003.8
20260830212704 14 13 1.6 4.8 0.00 1.75 1.75 95 1003.7
20260830212204 14 355 0.0 0.0 0.00 1.75 1.75 96 1003.6
20260830211704 14 355 0.0 0.0 0.00 1.75 1.75 96 1003.5
20260830211204 14 355 0.0 0.0 0.00 1.75 1.75 96 1003.5
20260830210204 14 355 0.0 0.0 0.00 1.75 1.75 95 1003.4
20260830205704 14 355 0.0 0.0 0.00 1.75 1.75 95 1003.4
20260830205204 13 355 0.0 0.0 0.00 1.75 1.75 95 1003.3
20260830204204 13 355 0.0 1.6 0.00 1.75 1.75 95 1003.2
20260830203704 13 355 0.0 3.2 0.00 1.75 1.75 95 1003.1
20260830203204 13 355 0.0 1.6 0.00 1.75 1.75 95 1003.1
20260830202704 13 355 0.0 1.6 0.00 1.75 1.75 95 1003.0
20260830202204 14 355 1.6 4.8 0.00 1.75 1.75 95 1003.0
20260830201704 14 5 0.0 3.2 0.00 1.75 1.75 95 1003.0
20260830201204 14 32 0.0 3.2 0.00 1.75 1.75 95 1002.9
20260830200704 14 14 1.6 4.8 0.00 1.75 1.75 95 1002.9
20260830200204 14 355 1.6 3.2 0.00 1.75 1.75 95 1002.8
20260830195703 14 20 1.6 3.2 0.00 1.75 1.75 95 1002.7
20260830195204 14 349 1.6 4.8 0.00 1.75 1.75 95 1002.6
20260830194704 14 10 1.6 4.8 0.03 1.75 1.75 95 1002.6
20260830194204 15 340 3.2 4.8 0.03 1.75 1.75 95 1002.4
20260830192704 15 0 3.2 4.8 0.05 1.75 1.75 95 1002.2
20260830192204 15 8 3.2 12.9 0.15 1.75 1.75 95 1002.2
20260830191203 15 13 3.2 4.8 0.15 1.75 1.75 94 1002.0
20260830190704 15 4 4.8 11.3 0.15 1.75 1.75 95 1001.9
20260830190204 15 7 9.7 19.3 0.15 1.75 1.75 94 1001.7
20260830185704 15 346 4.8 11.3 0.15 1.75 1.75 95 1001.7
20260830185203 15 8 3.2 9.7 0.15 1.75 1.75 94 1001.7
20260830184703 15 335 4.8 14.5 0.13 1.73 1.73 94 1001.6
20260830184204 15 17 4.8 14.5 0.13 1.73 1.73 94 1001.5
20260830183704 15 14 4.8 8.0 0.13 1.73 1.73 94 1001.4
20260830183204 15 357 4.8 14.5 0.13 1.73 1.73 94 1001.4
20260830182704 15 12 4.8 16.1 0.10 1.70 1.70 94 1001.3
20260830182203 15 5 6.4 12.9 0.00 1.60 1.60 94 1001.3
20260830181704 15 349 4.8 12.9 0.00 1.60 1.60 94 1001.2
20260830181205 15 327 3.2 9.7 0.00 1.60 1.60 94 1001.2
20260830180205 16 323 1.6 8.0 0.00 1.60 1.60 94 1001.1
20260830175704 16 333 3.2 9.7 0.00 1.60 1.60 94 1001.0
20260830175203 16 321 3.2 4.8 0.00 1.60 1.60 94 1001.0
20260830174704 16 344 1.6 8.0 0.00 1.60 1.60 94 1000.9
20260830174204 16 315 3.2 8.0 0.00 1.60 1.60 94 1000.9
20260830173703 16 282 1.6 4.8 0.00 1.60 1.60 94 1000.9
20260830172703 16 283 3.2 4.8 0.00 1.60 1.60 94 1000.8
20260830172204 15 270 1.6 4.8 0.00 1.60 1.60 94 1000.8
20260830171704 15 294 3.2 12.9 0.00 1.60 1.60 94 1000.8
20260830171204 15 266 4.8 9.7 0.00 1.60 1.60 94 1000.8
20260830165204 15 242 3.2 4.8 0.03 1.60 1.60 93 1000.4
20260830164704 15 230 1.6 4.8 0.03 1.60 1.60 93 1000.4
20260830164203 15 228 1.6 4.8 0.03 1.60 1.60 93 1000.4
20260830163203 15 202 3.2 4.8 0.03 1.60 1.60 93 1000.4
20260830162704 15 169 1.6 3.2 0.03 1.60 1.60 93 1000.4
20260830161704 15 137 1.6 4.8 0.08 1.60 1.60 93 1000.3
20260830161204 15 119 1.6 4.8 0.10 1.60 1.60 93 1000.3
20260830160705 15 107 1.6 3.2 0.20 1.57 1.57 93 1000.4
20260830160203 14 107 1.6 3.2 0.25 1.57 1.57 92 1000.5
20260830155704 14 100 3.2 4.8 0.38 1.57 1.57 92 1000.4
20260830155204 14 85 3.2 4.8 0.41 1.57 1.57 92 1000.3
20260830154704 14 105 1.6 3.2 0.58 1.57 1.57 92 1000.4
20260830153703 14 92 1.6 3.2 1.55 1.57 1.57 92 1000.4
20260830153204 14 137 1.6 4.8 1.55 1.57 1.57 92 1000.3
20260830152704 14 144 4.8 8.0 1.55 1.57 1.57 91 1000.2
20260830151704 14 164 3.2 4.8 1.50 1.55 1.55 91 1000.2
20260830150704 14 101 3.2 9.7 1.42 1.45 1.45 90 1000.2
20260830150205 15 101 6.4 11.3 1.32 1.37 1.37 90 1000.1
20260830145704 15 117 4.8 9.7 1.17 1.22 1.22 89 1000.3
20260830145204 15 25 4.8 9.7 1.14 1.17 1.17 89 1000.2
20260830144704 15 19 8.0 14.5 1.07 1.09 1.09 88 1000.1
20260830143704 16 13 6.4 12.9 0.03 0.05 0.05 87 1000.0
20260830143203 17 350 8.0 16.1 0.00 0.05 0.05 86 999.9
20260830142703 17 322 4.8 9.7 0.00 0.05 0.05 85 999.7
20260830142204 17 357 4.8 8.0 0.00 0.05 0.05 85 999.7
20260830141704 17 30 3.2 9.7 0.00 0.05 0.05 85 999.6
20260830140704 18 60 6.4 12.9 0.00 0.05 0.05 84 999.7
20260830140204 18 87 6.4 12.9 0.00 0.05 0.05 83 999.8
20260830135703 18 108 1.6 4.8 0.00 0.05 0.05 83 999.8
20260830135204 18 108 3.2 8.0 0.00 0.05 0.05 83 999.8
20260830134205 18 92 4.8 9.7 0.03 0.05 0.05 82 999.6
20260830132703 18 157 3.2 4.8 0.05 0.05 0.05 84 999.7
20260830132204 18 192 1.6 4.8 0.05 0.05 0.05 83 999.7
20260830131704 18 192 3.2 8.0 0.05 0.05 0.05 84 999.7
20260830131203 18 165 6.4 9.7 0.05 0.05 0.05 86 999.8
20260830130704 18 144 3.2 4.8 0.05 0.05 0.05 87 999.8
20260830130203 17 109 4.8 8.0 0.05 0.05 0.05 86 999.6
20260830125704 18 180 1.6 3.2 0.05 0.05 0.05 88 999.8
20260830125204 17 308 1.6 3.2 0.05 0.05 0.05 87 999.9
20260830124704 17 308 1.6 4.8 0.05 0.05 0.05 87 1000.0
20260830124204 17 210 3.2 4.8 0.03 0.03 0.03 87 1000.1
20260830123704 17 167 1.6 11.3 0.00 0.00 0.00 87 1000.1
20260830123203 17 147 4.8 14.5 0.00 0.00 0.00 87 1000.1
20260830122703 17 165 6.4 16.1 0.00 0.00 0.00 87 1000.0
20260830122204 17 216 4.8 9.7 0.00 0.00 0.00 88 1000.1
20260830121704 17 225 8.0 12.9 0.00 0.00 0.00 88 1000.0
20260830121203 17 220 9.7 16.1 0.00 0.00 0.00 88 1000.1
20260830120704 17 239 3.2 9.7 0.00 0.00 0.00 88 1000.0
20260830120203 17 182 4.8 11.3 0.00 0.00 0.00 89 999.9
20260830115703 17 145 9.7 14.5 0.00 0.00 0.00 90 999.9
20260830115204 17 147 3.2 11.3 0.00 0.00 0.00 90 1000.1
20260830114704 17 140 4.8 11.3 0.00 0.00 0.00 90 1000.0
20260830113704 16 155 8.0 14.5 0.00 0.00 0.00 90 1000.0
20260830112704 16 150 4.8 14.5 0.00 0.00 0.00 91 1000.2